Theta_e
339 333 330 335 330 329 329 332 338 336 335 333 330 329 329 328 323 324 320 320 320 316
337 335 332 338 344 332 340 334 336 334 333 330 328 327 325 324 322 321 320 320 320 316
336 338 338 339 339 340 340 336 335 333 330 328 326 324 323 320 321 320 318 316 317 316
338 338 339 339 337 337 337 335 332 330 328 325 322 322 321 319 317 316 316 316 314 314
338 338 339 338 337 335 334 333 330 327 323 321 320 319 317 315 314 314 313 312 312 311
339 339 339 339 338 335 332 330 325 323 320 319 317 316 315 315 314 313 312 311 310 310
340 338 335 336 335 333 329 324 320 318 318 314 316 314 313 312 312 312 311 310 310 310
340 336 334 332 331 328 322 317 317 317 314 313 315 313 313 311 311 311 310 311 310 311
335 333 330 330 326 321 314 313 315 312 314 316 310 301 303 306 312 311 311 310 311 312
331 330 328 325 319 315 311 311 311 313 316 314 308 301 301 302 313 311 310 311 310 308
327 324 323 319 317 315 312 313 313 311 315 313 306 301 301 301 312 311 311 310 309 308
325 321 318 318 313 313 312 311 311 313 315 312 305 300 300 302 311 310 309 309 307 305
323 320 317 315 312 313 310 310 314 312 313 308 305 299 299 301 310 309 309 310 309 299
322 318 316 313 308 310 310 310 309 311 310 309 306 303 299 299 307 308 307 307 307 304
Wind_Speed
15 10 9 12 11 10 9 8 11 7 5 4 3 1 2 1 4 4 5 3 5 8
15 15 12 14 10 9 7 10 10 8 6 4 2 1 3 4 3 4 3 4 5 6
16 15 12 13 11 10 8 9 11 7 7 5 1 2 4 1 5 2 3 4 5 5
17 15 13 12 12 11 11 11 10 9 8 6 4 1 0 2 1 2 2 3 5 6
14 14 14 13 14 14 12 11 10 6 7 5 4 3 1 0 3 2 4 4 6 7
16 16 15 15 14 14 12 11 10 6 6 4 4 5 3 2 2 3 3 4 5 5
18 17 15 15 14 14 14 11 9 8 8 5 6 4 4 4 2 2 4 4 4 5
16 15 15 15 15 14 13 10 8 8 6 8 7 3 4 4 3 2 4 4 4 7
15 15 15 16 17 15 13 10 10 8 10 7 6 7 5 5 4 4 5 4 3 6
14 13 14 15 17 15 14 13 11 8 9 6 9 6 3 3 4 5 3 5 4 7
14 14 13 15 16 12 12 12 10 8 7 10 7 7 5 6 5 5 5 4 4 5
16 15 17 17 15 14 13 9 7 8 13 12 10 9 7 7 7 6 4 5 5 4
15 16 16 14 14 10 10 9 7 10 12 12 11 9 6 5 3 4 6 4 9 8
14 15 14 12 12 7 7 3 5 8 8 7 12 10 5 2 8 2 5 1 5 7
Wind_Direction
165 176 187 182 191 192 182 177 147 177 149 158 135 46 1 169 349 27 354 11 357 318
176 172 193 185 206 192 178 138 168 161 159 144 129 43 337 68 17 329 344 313 46 322
182 181 190 177 193 185 165 157 153 156 154 156 133 10 322 318 101 329 348 329 355 335
187 184 190 177 185 168 164 160 163 165 158 158 155 119 230 119 156 316 349 357 4 342
182 182 183 178 185 171 160 159 176 145 142 171 158 173 199 345 26 9 5 8 352 356
185 184 176 179 175 164 155 164 138 148 118 213 170 174 163 93 58 21 19 19 8 2
186 181 173 175 163 161 151 151 120 150 155 93 216 170 147 110 68 19 54 53 36 25
185 176 173 172 150 153 141 133 133 158 120 213 181 150 112 124 109 110 104 93 18 107
176 175 172 151 154 151 140 143 147 156 197 181 127 85 59 335 134 126 75 56 38 134
171 168 160 151 154 152 151 139 166 190 175 138 120 145 143 275 155 112 103 72 26 349
157 155 157 159 168 156 150 157 164 171 165 149 135 167 203 241 167 135 115 97 66 31
155 161 161 177 163 157 149 148 170 181 169 160 155 182 206 236 179 135 129 133 94 33
163 160 161 169 150 151 149 158 180 173 172 155 145 184 204 252 238 172 190 200 137 91
155 151 151 144 134 124 119 181 120 167 120 163 164 156 191 319 290 143 207 120 135 126